Winnipeg, Manitoba

9:19 PM CDT on October 17, 2017 (GMT -0500)
Winnipeg International Airport

Weather History for CYWG - January, 2013

Change the Weather History Date:

Saturday, January 19, 2013

  Actual Average Record
Temperature  
Mean Temperature -8 °F -  
Max Temperature 3 °F 12 °F 28 °F (1997)
Min Temperature -18 °F -7 °F -23 °F (2008)
Degree Days  
Heating Degree Days 72    
Moisture  
Dew Point -4 °F    
Average Humidity 79    
Maximum Humidity 92    
Minimum Humidity 52    
Precipitation  
Precipitation 0.12 in 0.02 in - ()
Sea Level Pressure  
Sea Level Pressure 30.02 in    
Wind  
Wind Speed 11 mph ()    
Max Wind Speed 30 mph    
Max Gust Speed 37 mph    
Visibility 7.3 miles    
Events Snow    
Averages and records for this station are not official NWS values.
T = Trace of Precipitation, MM = Missing Value Source: Averaged Metar Reports

Daily Weather History Graph

Daily Weather History Graph

Search for Another Location

Airport or City:

Trip Planner

Search our weather history database for the weather conditions in past years. The results will help you decide how hot, cold, wet, or windy it might be!

Date:

Astronomy

Jan. 19, 2013 Rise Set
Actual Time 8:17 AM CST 5:02 PM CST
Civil Twilight 7:41 AM CST 5:38 PM CST
Nautical Twilight 7:01 AM CST 6:18 PM CST
Astronomical Twilight 6:22 AM CST 6:57 PM CST
Moon 11:36 AM CST (1/19) 1:44 AM CST (1/19)
Length of Visible Light 9h 57m
Length of Day
8h 45m
First Quarter, 57% of the Moon is Illuminated
Jan 19
First Quarter
Jan 26
Full
Feb 3
Last Quarter
Feb 10
New
Feb 17
First Quarter

Hourly Weather History & Observations

Time (CST) Temp. Windchill Dew Point Humidity Pressure Visibility Wind Dir Wind Speed Gust Speed Precip Events Conditions
12:00 AM 9 °F - 6 °F 83% 29.77 in 2 mi Calm Calm - -   Unknown Precipitation
12:00 AM 8.6 °F -1.3 °F 5.0 °F 85% 29.77 in 2.0 mi ESE 5.8 mph - N/A Snow Light Snow
12:47 AM 8.6 °F -3.7 °F 5.0 °F 85% 29.75 in 1.5 mi ESE 8.1 mph - N/A Snow Light Snow
1:00 AM 8.6 °F -3.7 °F 5.0 °F 85% 29.75 in 1.5 mi ESE 8.1 mph - N/A Snow Light Snow
1:31 AM 10.4 °F -0.4 °F 6.8 °F 85% 29.73 in 0.5 mi East 6.9 mph - N/A Snow Snow
1:51 AM 8.6 °F -3.7 °F 6.8 °F 92% 29.73 in 2.0 mi ENE 8.1 mph - N/A Snow Light Snow
2:00 AM 8.6 °F -1.3 °F 6.8 °F 92% 29.74 in 2.0 mi East 5.8 mph - N/A Snow Light Snow
2:53 AM 8.6 °F -2.6 °F 5.0 °F 85% 29.76 in 5.0 mi NNE 6.9 mph - N/A Snow Light Snow
3:00 AM 8.6 °F -2.6 °F 5.0 °F 85% 29.76 in 5.0 mi NNE 6.9 mph - N/A Snow Light Snow
3:39 AM 8.6 °F -3.7 °F 5.0 °F 85% 29.75 in 10.0 mi NNE 8.1 mph - N/A   Overcast
4:00 AM 6.8 °F -7.8 °F 5.0 °F 92% 29.76 in 5.0 mi NNE 10.4 mph - N/A Snow Light Snow
5:00 AM 6.8 °F -8.6 °F 3.2 °F 85% 29.78 in 3.0 mi North 11.5 mph - N/A Snow Light Snow
5:03 AM 6.8 °F -8.6 °F 3.2 °F 85% 29.78 in 1.5 mi North 11.5 mph - N/A Snow Light Snow
6:00 AM 3 °F - 1 °F 88% 29.83 in 9 mi Calm Calm - -  
6:00 AM 3.2 °F -15.3 °F -0.4 °F 85% 29.82 in 15.0 mi NNW 15.0 mph - N/A   Mostly Cloudy
6:18 AM 1.4 °F -16.9 °F -2.2 °F 85% 29.83 in 15.0 mi North 13.8 mph - N/A Snow Low Drifting Snow
7:00 AM 1.4 °F -18.2 °F -2.2 °F 85% 29.86 in 15.0 mi NNW 16.1 mph - N/A Snow Low Drifting Snow
8:00 AM -0.4 °F -22.8 °F -4.0 °F 85% 29.91 in 15.0 mi NNW 20.7 mph - N/A Snow Low Drifting Snow
9:00 AM -0.4 °F -23.3 °F -5.8 °F 78% 29.95 in 6.0 mi NNW 21.9 mph - N/A Snow Blowing Snow
9:50 AM 1.4 °F -19.9 °F -5.8 °F 72% 29.99 in 4.0 mi NNW 19.6 mph 27.6 mph N/A Snow Light Snow
10:00 AM 1.4 °F -20.5 °F -4.0 °F 78% 30.00 in 2.0 mi NNW 20.7 mph 26.5 mph N/A Snow Light Snow
10:06 AM 1.4 °F -21.0 °F -4.0 °F 78% 30.01 in 0.8 mi NNW 21.9 mph - N/A Snow Light Snow
11:00 AM 1.4 °F -20.5 °F -4.0 °F 78% 30.06 in 0.8 mi North 20.7 mph 32.2 mph N/A Snow Light Snow
11:32 AM 1.4 °F -21.4 °F -4.0 °F 78% 30.08 in 0.5 mi North 23.0 mph 36.8 mph N/A Snow Light Snow
12:00 PM -0 °F - -6 °F 64% 30.12 in 1 mi Calm Calm - -   Unknown Precipitation
12:00 PM -0.4 °F -26.4 °F -5.8 °F 78% 30.11 in 0.8 mi North 29.9 mph - N/A Snow Light Snow
12:51 PM -0.4 °F -23.8 °F -5.8 °F 78% 30.15 in 7.0 mi North 23.0 mph 28.8 mph N/A Snow Light Snow
1:00 PM -0.4 °F -22.8 °F -7.6 °F 72% 30.16 in 7.0 mi North 20.7 mph 32.2 mph N/A Snow Light Snow
2:00 PM -0.4 °F -22.8 °F -7.6 °F 72% 30.20 in 10.0 mi NNW 20.7 mph 29.9 mph N/A Snow Low Drifting Snow
3:00 PM -0.4 °F -23.3 °F -9.4 °F 66% 30.24 in 10.0 mi NNW 21.9 mph - N/A Snow Low Drifting Snow
4:00 PM -2.2 °F -26.2 °F -9.4 °F 71% 30.30 in 10.0 mi NNW 23.0 mph 28.8 mph N/A Snow Low Drifting Snow
5:00 PM -4.0 °F -28.1 °F -11.2 °F 71% 30.33 in 15.0 mi NNW 21.9 mph - N/A Snow Low Drifting Snow
6:00 PM -7 °F - -15 °F 52% 30.38 in 9 mi Calm Calm - -  
6:00 PM -7.6 °F -30.5 °F -13.0 °F 77% 30.37 in 15.0 mi NW 17.3 mph - N/A Snow Low Drifting Snow
7:00 PM -11.2 °F -33.7 °F -16.6 °F 77% 30.40 in 15.0 mi NW 15.0 mph - N/A Snow Low Drifting Snow
8:00 PM -11.2 °F -29.0 °F -18.4 °F 70% 30.41 in 15.0 mi WNW 9.2 mph - N/A Snow Low Drifting Snow
9:00 PM -16.6 °F -36.8 °F -20.2 °F 84% 30.42 in 15.0 mi WNW 10.4 mph - N/A   Clear
10:00 PM -18.4 °F -36.6 °F -23.8 °F 76% 30.42 in 15.0 mi WNW 8.1 mph - N/A   Clear
11:00 PM -14.8 °F -32.2 °F -20.2 °F 77% 30.43 in 15.0 mi West 8.1 mph - N/A   Clear